Regional Weather Roundup
Issued by NWS Kansas City/Pleasant Hill, MO

Home | Current Version | Previous Version | Graphics & Text | Print | Product List | Glossary Off
Versions: 1 2 3 4 5 6 7 8 9 10 11 12 13 14 15 16 17 18 19 20 21 22 23 24 25 26 27 28 29 30 31 32 33 34 35 36 37 38 39 40 41 42 43 44 45 46 47 48 49 50

000
ASUS43 KEAX 022110
RWREAX

WEATHER ROUNDUP FOR EASTERN KANSAS AND NORTHWEST MISSOURI
NATIONAL WEATHER SERVICE KANSAS CITY/PLEASANT HILL MO
400 PM CDT TUE SEP 02 2014

KSZ040-057-103>105-MOZ028-029-037-043-022200-
...KANSAS CITY METROPOLITAN AREA...

CITY           SKY/WX    TMP DP  RH WIND       PRES   REMARKS
K.C. INTL      MOSUNNY   79  68  69 S8        29.97F
K.C. DOWNTOWN  SUNNY     83  66  56 SW7       29.96F
LEES SUMMIT    MOSUNNY   82  69  64 W6        29.98F
OLATHE - IXD   PTSUNNY   79  71  76 S8        29.99F
OLATHE - OJC   MOSUNNY   77  71  82 S10       29.97F
LAWRENCE       MOSUNNY   81  66  60 SW7       29.97F

$$

MOZ001>008-011>017-020>025-030>033-038>040-044>046-053-054-022200-
...NORTHERN AND CENTRAL MISSOURI...

CITY           SKY/WX    TMP DP  RH WIND       PRES   REMARKS
ST. JOSEPH     SUNNY     84  65  52 NW6       29.96F
MOSBY          PTCLDY    81  64  57 W5        29.97F
WHITEMAN AFB   PTSUNNY   78  71  77 W8        29.97F
CLINTON        PTSUNNY   79  72  78 NW5       29.98F
SEDALIA        PTSUNNY   79  70  74 W7        29.98F
WARSAW         NOT AVBL
MARSHALL       MOSUNNY   82  70  65 W5        29.97F
CHILLICOTHE      N/A     84  64  50 VRB5      29.96F
MOBERLY        MOSUNNY   81  66  61 NW7       29.97F
KIRKSVILLE     MOSUNNY   82  63  52 W8        29.97F

$$

MOZ041-047>049-056>058-063>065-088>090-097-022200-
...EASTERN AND SOUTHERN MISSOURI...

CITY           SKY/WX    TMP DP  RH WIND       PRES   REMARKS
ST. LOUIS INTL PTSUNNY   83  68  60 NW9       29.96F
SPIRIT OF STL  PTSUNNY   80  70  71 NW7       29.95F
COLUMBIA       PTSUNNY   81  70  69 W8        29.97F
JEFFERSON CITY CLOUDY    82  70  66 NW7       29.96F
HANNIBAL       PTSUNNY   82  61  47 W7        29.96F
ROLLA          CLOUDY    77  67  71 NW9       29.98F
LEBANON        PTSUNNY   79  64  61 NW5       29.99F
OSAGE BEACH    PTSUNNY   81  66  61 W8        29.97F
SPRINGFIELD    PTSUNNY   79  64  60 NW6       29.98F
BRANSON        PTSUNNY   77  68  73 CALM      29.98F
NEVADA         MOSUNNY   81  68  65 NW8       29.98F
JOPLIN         PTSUNNY   80  66  62 W8        29.97F
WEST PLAINS    CLOUDY    78  64  61 NW8       29.98F

$$

IAZ060-094-KSZ022-034>040-054-083-096-NEZ052-066-093-022200-
...KANSAS...SOUTHEAST NEBRASKA AND IOWA...

CITY           SKY/WX    TMP DP  RH WIND       PRES   REMARKS
TOPEKA         SUNNY     83  68  60 S8        29.97F
MANHATTAN      MOSUNNY   86  71  60 S8        29.95F HX  91
EMPORIA        MOSUNNY   83  68  60 S8        29.97F
CHANUTE        SUNNY     84  62  47 S5        29.96F
WICHITA        MOSUNNY   87  64  46 S12G18    29.95F
OMAHA          MOSUNNY   80  53  39 W5        29.97F
LINCOLN        SUNNY     82  53  36 CALM      29.98F
FALLS CITY     SUNNY     84  60  44 S3        29.96F
LAMONI         SUNNY     80  60  50 NW8       29.98F
DES MOINES     MOSUNNY   80  58  46 W9        29.96S

$$




USA.gov is the U.S. government's official web portal to all federal, state and local government web resources and services.